KI6IKQ Weather Reports


Display with metric or nautical units.
time (UTC)temp
F
wind
direction
speed
MPH
gust
MPH
rain 1hr
in
rain 24hr
in
rain mn
in
humidity
%
barometer
mb
20260508200003 78 313 5.0 14.0 0.00 0.00 0.00 52 1015.9
20260508195403 78 321 5.0 14.0 0.00 0.00 0.00 52 1016.0
20260508194503 78 313 4.0 12.0 0.00 0.00 0.00 50 1016.1
20260508193603 78 306 4.0 8.0 0.00 0.00 0.00 50 1016.2
20260508192703 77 331 6.0 12.0 0.00 0.00 0.00 51 1016.2
20260508191803 77 293 4.0 8.0 0.00 0.00 0.00 51 1016.5
20260508190903 77 320 5.0 12.0 0.00 0.00 0.00 49 1016.5
20260508190003 76 305 4.0 9.0 0.00 0.00 0.00 51 1016.5
20260508185403 76 306 4.0 9.0 0.00 0.00 0.00 51 1016.6
20260508184503 75 298 4.0 9.0 0.00 0.00 0.00 52 1016.7
20260508183603 74 288 3.0 9.0 0.00 0.00 0.00 53 1016.6
20260508182703 74 276 3.0 8.0 0.00 0.00 0.00 52 1016.7
20260508181803 73 282 4.0 9.0 0.00 0.00 0.00 52 1016.7
20260508180903 72 269 2.0 7.0 0.00 0.00 0.00 53 1016.8
20260508180003 72 295 4.0 9.0 0.00 0.00 0.00 52 1016.8
20260508175403 72 300 3.0 9.0 0.00 0.00 0.00 54 1016.8
20260508174503 72 298 3.0 8.0 0.00 0.00 0.00 55 1017.0
20260508173603 71 275 3.0 8.0 0.00 0.00 0.00 53 1017.1
20260508172724 71 296 4.0 9.0 0.00 0.00 0.00 56 1017.1
20260508171824 70 297 4.0 8.0 0.00 0.00 0.00 56 1017.1
20260508170924 70 320 4.0 9.0 0.00 0.00 0.00 57 1017.1
20260508170024 69 320 5.0 10.0 0.00 0.00 0.00 59 1017.1
20260508165424 68 312 4.0 10.0 0.00 0.00 0.00 60 1017.1
20260508164524 68 293 4.0 8.0 0.00 0.00 0.00 61 1017.2
20260508163624 67 295 4.0 10.0 0.00 0.00 0.00 62 1017.1
20260508162724 66 294 4.0 10.0 0.00 0.00 0.00 64 1017.2
20260508161824 65 297 4.0 11.0 0.00 0.00 0.00 66 1017.2
20260508160925 64 280 3.0 8.0 0.00 0.00 0.00 68 1017.2
20260508160003 63 250 2.0 8.0 0.00 0.00 0.00 68 1017.2
20260508155404 63 285 3.0 9.0 0.00 0.00 0.00 68 1017.2
20260508154503 62 302 3.0 10.0 0.00 0.00 0.00 71 1017.2
20260508153603 62 274 4.0 10.0 0.00 0.00 0.00 72 1017.2
20260508152704 61 285 3.0 10.0 0.00 0.00 0.00 74 1017.4
20260508151803 60 278 3.0 9.0 0.00 0.00 0.00 76 1017.3
20260508150924 60 283 3.0 9.0 0.00 0.00 0.00 78 1017.2
20260508150004 59 279 3.0 11.0 0.00 0.00 0.00 80 1017.1
20260508145403 58 281 3.0 7.0 0.00 0.00 0.00 81 1017.1
20260508144503 57 303 3.0 10.0 0.00 0.00 0.00 82 1017.0
20260508143603 57 281 2.0 7.0 0.00 0.00 0.00 84 1017.0
20260508142703 56 299 3.0 8.0 0.00 0.00 0.00 85 1016.8
20260508141803 55 292 2.0 6.0 0.00 0.00 0.00 86 1016.7
20260508140903 54 329 2.0 5.0 0.00 0.00 0.00 87 1016.7
20260508140003 53 325 2.0 5.0 0.00 0.00 0.00 88 1016.5
20260508135424 53 314 2.0 5.0 0.00 0.00 0.00 88 1016.5
20260508134503 52 316 1.0 3.0 0.00 0.00 0.00 88 1016.3
20260508133603 52 312 1.0 2.0 0.00 0.00 0.00 88 1016.4
20260508132703 52 305 1.0 2.0 0.00 0.00 0.00 88 1016.3
20260508131803 52 287 1.0 2.0 0.00 0.00 0.00 88 1016.2
20260508130903 52 301 1.0 2.0 0.00 0.00 0.00 87 1016.2
20260508130003 52 306 1.0 3.0 0.00 0.00 0.00 87 1016.3
20260508125424 52 311 1.0 2.0 0.00 0.00 0.00 87 1016.3
20260508124503 52 314 2.0 5.0 0.00 0.00 0.00 87 1016.3
20260508123624 52 293 2.0 6.0 0.00 0.00 0.00 88 1016.4
20260508122724 52 301 1.0 4.0 0.00 0.00 0.00 88 1016.4
20260508121824 52 323 1.0 3.0 0.00 0.00 0.00 88 1016.1
20260508120924 52 311 0.0 2.0 0.00 0.00 0.00 87 1016.0
20260508120024 52 307 1.0 2.0 0.00 0.00 0.00 87 1015.9
20260508115403 52 316 1.0 3.0 0.00 0.00 0.00 87 1016.0
20260508114503 53 306 1.0 3.0 0.00 0.00 0.00 87 1016.0
20260508113603 53 310 1.0 3.0 0.00 0.00 0.00 87 1016.0
20260508112703 53 311 1.0 3.0 0.00 0.00 0.00 87 1015.9
20260508111803 53 300 1.0 4.0 0.00 0.00 0.00 87 1015.9
20260508110903 53 290 1.0 3.0 0.00 0.00 0.00 87 1016.0
20260508110003 53 301 1.0 6.0 0.00 0.00 0.00 87 1015.9
20260508105403 53 305 1.0 4.0 0.00 0.00 0.00 87 1015.9
20260508104503 53 313 1.0 4.0 0.00 0.00 0.00 87 1015.9
20260508103603 54 319 1.0 3.0 0.00 0.00 0.00 87 1015.7
20260508102703 54 320 1.0 3.0 0.00 0.00 0.00 87 1015.7
20260508101803 54 310 1.0 3.0 0.00 0.00 0.00 86 1015.6
20260508100903 54 315 1.0 3.0 0.00 0.00 0.00 86 1015.6
20260508100003 54 329 1.0 3.0 0.00 0.00 0.00 86 1015.6
20260508095404 54 331 0.0 3.0 0.00 0.00 0.00 86 1015.5
20260508094503 54 320 1.0 3.0 0.00 0.00 0.00 86 1015.5
20260508093603 55 312 1.0 4.0 0.00 0.00 0.00 86 1015.5
20260508092703 55 312 1.0 3.0 0.00 0.00 0.00 86 1015.5
20260508091824 55 304 1.0 4.0 0.00 0.00 0.00 87 1015.5
20260508090903 55 286 1.0 4.0 0.00 0.00 0.00 87 1015.4
20260508090024 55 293 1.0 4.0 0.00 0.00 0.00 86 1015.3
20260508085403 55 299 1.0 4.0 0.00 0.00 0.00 86 1015.4
20260508084524 55 296 1.0 3.0 0.00 0.00 0.00 86 1015.4
20260508083603 55 304 1.0 5.0 0.00 0.00 0.00 86 1015.5
20260508082703 55 311 1.0 3.0 0.00 0.00 0.00 85 1015.5
20260508081803 56 314 1.0 4.0 0.00 0.00 0.00 85 1015.5
20260508080903 56 318 1.0 4.0 0.00 0.00 0.00 85 1015.7
20260508080003 56 298 1.0 4.0 0.00 0.00 0.00 84 1015.6
20260508075403 56 294 1.0 3.0 0.00 0.00 0.00 84 1015.6
20260508074524 56 308 1.0 3.0 0.00 0.00 0.00 83 1015.5
20260508073603 57 310 1.0 3.0 0.00 0.00 0.00 83 1015.3
20260508072703 57 306 1.0 4.0 0.00 0.00 0.00 82 1015.2
20260508071803 57 308 2.0 4.0 0.00 0.00 0.00 82 1015.3
20260508070903 58 304 1.0 4.0 0.00 0.00 0.00 82 1015.2
20260508070003 58 323 1.0 4.0 0.00 0.00 0.00 81 1015.1
20260508065403 58 305 1.0 4.0 0.00 0.00 0.00 80 1015.1
20260508064524 58 304 1.0 4.0 0.00 0.00 0.00 80 1015.1
20260508063624 59 295 1.0 7.0 0.00 0.00 0.00 79 1015.1
20260508062724 59 295 1.0 3.0 0.00 0.00 0.00 78 1015.2
20260508061824 59 296 1.0 4.0 0.00 0.00 0.00 78 1015.1
20260508060924 60 301 1.0 3.0 0.00 0.00 0.00 77 1015.2
20260508060003 60 289 1.0 3.0 0.00 0.00 0.00 76 1015.2
20260508055403 60 296 1.0 2.0 0.00 0.00 0.00 76 1015.1
20260508054503 61 294 1.0 4.0 0.00 0.00 0.00 75 1015.2
20260508053603 61 304 1.0 4.0 0.00 0.00 0.00 74 1015.2
20260508052707 62 292 1.0 6.0 0.00 0.00 0.00 73 1015.2
20260508051803 62 304 2.0 5.0 0.00 0.00 0.00 72 1015.2
20260508050903 63 304 2.0 4.0 0.00 0.00 0.00 72 1015.3
20260508050024 63 305 2.0 7.0 0.00 0.00 0.00 70 1015.2
20260508045403 64 285 2.0 4.0 0.00 0.00 0.00 70 1015.2
20260508044503 64 291 2.0 7.0 0.00 0.00 0.00 69 1015.2
20260508043603 65 287 2.0 7.0 0.00 0.00 0.00 68 1015.1
20260508042703 65 284 2.0 5.0 0.00 0.00 0.00 67 1015.1
20260508041803 66 279 2.0 4.0 0.00 0.00 0.00 66 1015.2
20260508040903 66 309 2.0 7.0 0.00 0.00 0.00 65 1015.1
20260508040003 67 300 2.0 8.0 0.00 0.00 0.00 66 1014.8
20260508035403 68 280 2.0 6.0 0.00 0.00 0.00 67 1014.8
20260508034503 68 292 2.0 4.0 0.00 0.00 0.00 65 1014.7
20260508033603 69 306 2.0 8.0 0.00 0.00 0.00 64 1014.7
20260508032703 70 311 3.0 8.0 0.00 0.00 0.00 69 1014.5
20260508031803 71 297 2.0 5.0 0.00 0.00 0.00 68 1014.4
20260508030903 73 289 2.0 7.0 0.00 0.00 0.00 67 1014.2
20260508030024 74 282 3.0 7.0 0.00 0.00 0.00 65 1014.2
20260508025403 75 282 3.0 7.0 0.00 0.00 0.00 63 1014.2
20260508024503 76 294 3.0 7.0 0.00 0.00 0.00 61 1014.1
20260508023603 77 308 4.0 10.0 0.00 0.00 0.00 59 1014.0
20260508022703 78 291 3.0 7.0 0.00 0.00 0.00 58 1013.9
20260508021803 79 318 4.0 9.0 0.00 0.00 0.00 58 1013.9
20260508020903 80 301 4.0 9.0 0.00 0.00 0.00 56 1013.9
20260508020003 80 309 4.0 9.0 0.00 0.00 0.00 55 1013.9
20260508015403 81 302 4.0 10.0 0.00 0.00 0.00 54 1013.9
20260508014503 82 324 5.0 10.0 0.00 0.00 0.00 53 1013.9
20260508013603 82 325 7.0 13.0 0.00 0.00 0.00 52 1013.9
20260508012703 83 321 6.0 11.0 0.00 0.00 0.00 50 1013.8
20260508011824 84 328 5.0 12.0 0.00 0.00 0.00 49 1013.9
20260508010924 86 318 5.0 11.0 0.00 0.00 0.00 47 1013.9
20260508010003 87 312 5.0 9.0 0.00 0.00 0.00 48 1013.8
20260508005403 87 302 5.0 9.0 0.00 0.00 0.00 47 1013.8
20260508004503 87 299 3.0 8.0 0.00 0.00 0.00 47 1013.7
20260508003603 87 303 4.0 8.0 0.00 0.00 0.00 47 1013.8
20260508002703 87 284 3.0 8.0 0.00 0.00 0.00 47 1013.9
20260508001803 86 325 5.0 10.0 0.00 0.00 0.00 50 1013.9
20260508000903 86 318 4.0 10.0 0.00 0.00 0.00 49 1013.9
20260508000024 86 318 5.0 9.0 0.00 0.00 0.00 50 1013.9
20260507235424 86 307 5.0 9.0 0.00 0.00 0.00 50 1013.9
20260507234524 86 311 4.0 9.0 0.00 0.00 0.00 48 1014.0
20260507233624 86 321 5.0 10.0 0.00 0.00 0.00 49 1014.1
20260507232724 86 308 4.0 11.0 0.00 0.00 0.00 48 1014.2
20260507231803 85 309 4.0 10.0 0.00 0.00 0.00 50 1014.4
20260507230903 85 308 5.0 9.0 0.00 0.00 0.00 50 1014.5
20260507230024 84 312 5.0 11.0 0.00 0.00 0.00 50 1014.6
20260507225403 84 307 5.0 9.0 0.00 0.00 0.00 50 1014.7
20260507224503 84 311 5.0 10.0 0.00 0.00 0.00 51 1014.7
20260507223603 83 322 4.0 11.0 0.00 0.00 0.00 51 1014.8
20260507222703 82 340 5.0 12.0 0.00 0.00 0.00 52 1014.8
20260507221803 82 341 4.0 11.0 0.00 0.00 0.00 52 1015.0
20260507220903 82 329 4.0 10.0 0.00 0.00 0.00 53 1015.0
20260507220003 82 330 5.0 11.0 0.00 0.00 0.00 54 1015.3
20260507215403 81 332 5.0 12.0 0.00 0.00 0.00 53 1015.4
20260507214503 82 333 5.0 11.0 0.00 0.00 0.00 53 1015.4
20260507213603 82 329 4.0 11.0 0.00 0.00 0.00 54 1015.5
20260507212703 81 320 4.0 10.0 0.00 0.00 0.00 54 1015.8
20260507211803 81 319 5.0 11.0 0.00 0.00 0.00 56 1015.9
20260507210903 80 332 5.0 11.0 0.00 0.00 0.00 55 1016.0
20260507210003 80 332 4.0 9.0 0.00 0.00 0.00 57 1016.1
20260507205403 80 325 4.0 9.0 0.00 0.00 0.00 57 1016.2
20260507204503 80 320 4.0 8.0 0.00 0.00 0.00 56 1016.3
20260507203603 79 309 3.0 8.0 0.00 0.00 0.00 58 1016.4
20260507202703 79 323 4.0 12.0 0.00 0.00 0.00 58 1016.4
20260507201803 78 328 3.0 11.0 0.00 0.00 0.00 58 1016.6
20260507200903 78 308 4.0 9.0 0.00 0.00 0.00 57 1016.6